Location: La Comballaz
(46.3780°N, 7.0817°E)
Time: 12:37:43
(UTC+00:00)

CZ-4C R/B - Pass Details

Date: 09 April 2020
Orbit: 637 x 1365 km, 63.4° (Epoch: 28 May)

Event Time Altitude Azimuth Distance (km) Brightness Sun altitude
Rises 20:50:00 0° 321° (NW) 3,739 6.9 -24.6°
Reaches altitude 10° 20:52:31 10° 326° (NW) 2,889 6.0 -24.9°
Maximum altitude 20:59:22 53° 43° (NE) 1,436 3.3 -25.8°
Enters shadow 21:01:49 40° 93° (E) 1,744 3.4 -26.0°
